Ypsilanti, MI

3:41 PM EST on February 26, 2017 (GMT -0500)
Willow Run

Weather History for KYIP - September, 2013

Change the Weather History Date:

Friday, September 6, 2013

  Actual Average Record
Temperature  
Mean Temperature 62 °F -  
Max Temperature 75 °F 78 °F 96 °F (2016)
Min Temperature 48 °F 58 °F 41 °F (1984)
Degree Days  
Heating Degree Days 4    
Growing Degree Days 12 (Base 50)    
Moisture  
Dew Point 46 °F    
Average Humidity 61    
Maximum Humidity 93    
Minimum Humidity 25    
Precipitation  
Precipitation 0.00 in - - ()
Sea Level Pressure  
Sea Level Pressure 30.22 in    
Wind  
Wind Speed 1 mph (South)    
Max Wind Speed 8 mph    
Max Gust Speed -    
Visibility 10 miles    
Events      
Averages and records for this station are not official NWS values.
T = Trace of Precipitation, MM = Missing Value Source: NWS Daily Summary

Daily Weather History Graph

Daily Weather History Graph

Search for Another Location

Airport or City:

Trip Planner

Search our weather history database for the weather conditions in past years. The results will help you decide how hot, cold, wet, or windy it might be!

Date:

Astronomy

Sep. 06, 2013 Rise Set
Actual Time 7:04 AM EDT 7:59 PM EDT
Civil Twilight 6:36 AM EDT 8:27 PM EDT
Nautical Twilight 6:02 AM EDT 9:01 PM EDT
Astronomical Twilight 5:27 AM EDT 9:36 PM EDT
Moon 8:18 AM EDT (9/6) 8:19 PM EDT (9/6)
Length of Visible Light 13h 51m
Length of Day
12h 54m
New Moon, 1% of the Moon is Illuminated
Sep 6
New Moon
Sep 12
First Quarter
Sep 19
Full
Sep 26
Last Quarter
Oct 4
New

Hourly Weather History & Observations

Time (EDT) Temp. Dew Point Humidity Pressure Visibility Wind Dir Wind Speed Gust Speed Precip Events Conditions
12:53 AM 55.9 °F 48.0 °F 75% 30.27 in 10.0 mi Calm Calm - N/A   Clear
1:53 AM 53.1 °F 48.0 °F 83% 30.27 in 10.0 mi Calm Calm - N/A   Clear
2:53 AM 51.1 °F 46.9 °F 86% 30.27 in 10.0 mi Calm Calm - N/A   Clear
3:53 AM 51.1 °F 45.0 °F 80% 30.27 in 10.0 mi Calm Calm - N/A   Clear
4:53 AM 50.0 °F 45.0 °F 83% 30.27 in 10.0 mi Calm Calm - N/A   Clear
5:53 AM 48.9 °F 45.0 °F 86% 30.27 in 2.5 mi Calm Calm - N/A   Clear
6:06 AM 48.2 °F 46.4 °F 93% 30.28 in 10.0 mi Calm Calm - N/A   Clear
6:53 AM 48.0 °F 43.0 °F 83% 30.29 in 10.0 mi Calm Calm - N/A   Clear
7:53 AM 50.0 °F 46.0 °F 86% 30.29 in 10.0 mi Calm Calm - N/A   Partly Cloudy
8:53 AM 57.9 °F 48.9 °F 72% 30.29 in 10.0 mi Calm Calm - N/A   Clear
9:53 AM 63.0 °F 48.9 °F 60% 30.28 in 10.0 mi Calm Calm - N/A   Clear
10:53 AM 68.0 °F 44.1 °F 42% 30.28 in 10.0 mi Calm Calm - N/A   Clear
11:53 AM 70.0 °F 32.0 °F 25% 30.27 in 10.0 mi SSW 5.8 mph - N/A   Clear
12:53 PM 72.0 °F 37.0 °F 28% 30.25 in 10.0 mi Calm Calm - N/A   Clear
1:53 PM 73.0 °F 41.0 °F 31% 30.23 in 10.0 mi South 5.8 mph - N/A   Clear
2:53 PM 75.0 °F 41.0 °F 29% 30.20 in 10.0 mi South 4.6 mph - N/A   Clear
3:53 PM 75.9 °F 46.0 °F 35% 30.17 in 10.0 mi South 5.8 mph - N/A   Clear
4:53 PM 75.9 °F 43.0 °F 31% 30.17 in 10.0 mi Variable 4.6 mph - N/A   Clear
5:53 PM 75.9 °F 45.0 °F 33% 30.16 in 10.0 mi Calm Calm - N/A   Clear
6:53 PM 73.0 °F 48.9 °F 42% 30.14 in 10.0 mi SE 8.1 mph - N/A   Clear
7:53 PM 66.9 °F 52.0 °F 59% 30.14 in 10.0 mi SSE 8.1 mph - N/A   Clear
8:53 PM 64.0 °F 53.1 °F 67% 30.12 in 10.0 mi SSE 6.9 mph - N/A   Clear
9:53 PM 64.0 °F 53.1 °F 67% 30.12 in 10.0 mi Calm Calm - N/A   Clear
10:53 PM 62.1 °F 53.1 °F 72% 30.10 in 10.0 mi South 3.5 mph - N/A   Clear
11:53 PM 61.0 °F 54.0 °F 78% 30.08 in 10.0 mi SSW 5.8 mph - N/A   Clear